Location: Boursin
(50.7765°N, 1.8346°E)
Time: 09:42:15
(UTC+00:00)

Daily predictions for brighter satellites

Satellite Brightness Start Highest point End
(mag) Time Altitude Azimuth Time Altitude Azimuth Time Altitude Azimuth
COSMOS 2428 3.0 17:21:32 10° NNW 17:27:08 50° NE 17:32:41 10° SE
SMAP 3.8 17:26:20 10° S 17:30:56 62° WSW 17:35:34 10° NNW
ARIANE 5 R/B 2.6 17:28:17 10° SSE 17:33:25 90° N 17:38:32 10° NNW
Cosmos 2237 Rocket 3.0 17:31:14 10° NNW 17:36:15 31° NE 17:41:15 10° ESE
Cosmos 2322 Rocket 4.1 17:31:22 10° NW 17:36:27 36° WSW 17:41:30 10° S
Aureole 3 Rocket 4.2 17:33:14 10° NNE 17:36:36 20° ENE 17:39:23 10° ESE
Cosmos 158 Rocket 4.4 17:32:36 10° S 17:37:02 37° ESE 17:41:29 10° NE
ATLAS 5 CENTAUR R/B 1.9 17:33:45 10° NW 17:37:54 76° SW 17:43:04 10° SE
Meteor 1-28 Rocket 4.0 17:35:53 10° N 17:39:05 46° WNW 17:42:16 10° SW
Cosmos 1378 Rocket 3.8 17:36:22 10° SSE 17:40:28 44° E 17:44:34 10° NNE
SeaSat 1 2.7 17:35:45 10° SSE 17:40:38 78° WSW 17:45:35 10° NNW
ARIANE 6 FM1 Upper Stage 4.5 17:38:20 10° NW 17:40:58 17° N 17:43:37 10° NE
Resurs 01 Rocket 2.6 17:38:29 10° ESE 17:42:03 25° ENE 17:45:38 10° N
USA 234 4.2 17:35:44 10° SSE 17:42:04 51° SW 17:48:27 10° WNW
SKYMED 2 4.0 17:38:42 10° NNE 17:42:53 43° E 17:47:01 10° S
Cosmos 1459 Rocket 4.2 17:36:40 10° NNW 17:42:53 82° W 17:49:10 10° S
Thor Agena Rocket 4.3 17:38:53 10° S 17:43:53 57° WSW 17:48:58 10° NNW
GP-B 3.1 17:40:16 10° SSE 17:44:35 63° E 17:48:55 10° N
Cosmos 2219 Rocket 3.2 17:40:50 10° NW 17:46:15 52° WSW 17:51:38 10° S
COSMO-SKYMED 1 3.3 17:43:31 10° NE 17:47:06 28° E 17:50:39 10° SSE
Cosmos 1727 Rocket 4.4 17:41:14 10° SSW 17:47:24 67° WNW 17:53:35 10° N
Cosmos 2292 Rocket 2.4 17:47:02 10° S 17:49:53 69° E 17:52:55 10° NNE
CZ-4 R/B 4.3 17:46:52 10° SSE 17:50:50 79° ENE 17:54:49 10° NNW
SJ-12 4.3 17:47:32 10° S 17:51:19 63° WSW 17:55:06 10° NNW
Cosmos 2322 3.7 17:45:43 10° NNW 17:51:28 78° ENE 17:57:12 10° SE
NOSS 3-3 (A) 4.4 17:47:01 10° S 17:51:40 35° ESE 17:57:04 10° NE
PSLV R/B 4.0 17:47:58 10° SE 17:51:47 37° ENE 17:55:34 10° N
USA 306 1.4 17:50:04 10° WNW 17:53:12 87° NNE 17:55:02 13° ESE
Cosmos 2016 Rocket 4.0 17:47:36 10° N 17:53:52 81° E 18:00:11 10° SSE
IRS-P3 4.2 17:48:48 10° SSE 17:54:08 87° WSW 17:59:30 10° NNW
Resurs 1-3 3.5 17:51:10 10° SSE 17:55:25 64° ENE 17:59:42 10° N
Cosmos 1802 Rocket 4.2 17:50:49 10° N 17:57:14 84° W 18:03:40 10° S
Cosmos 2285 Rocket 4.3 17:52:06 10° NNW 17:58:21 49° ENE 18:04:33 10° SE
Cosmos 1025 Rocket 3.5 17:54:50 10° SSE 17:58:49 38° E 18:02:50 10° NNE
Cosmos 2242 Rocket 3.6 17:54:32 10° S 17:58:56 88° W 18:03:20 10° N
SL-16 R/B 3.7 17:55:18 10° N 17:59:18 19° NE 18:02:26 13° ENE
SJ-7 4.4 17:55:57 10° SE 17:59:29 46° ENE 18:03:02 10° N
SPOT 1/Viking Rocket 3.8 17:59:14 10° S 18:04:20 72° WSW 18:09:29 10° NNW
Cosmos 2227 Rocket 4.0 18:03:02 10° ESE 18:03:35 11° ESE 18:03:35 11° ESE
NOSS 3-4 (A) 4.0 18:02:05 10° NW 18:08:17 50° NE 18:15:10 12° ESE
NOSS 3-4 (C) 4.0 18:02:20 10° NW 18:08:33 49° NE 18:15:23 12° ESE
SJ-6B 3.5 18:05:53 10° ESE 18:08:43 24° ENE 18:11:35 10° N
Cosmos 2233 Rocket 4.0 18:03:32 10° N 18:09:50 80° E 18:16:09 10° SSE
SPOT 5 4.2 18:08:20 14° E 18:10:53 21° ENE 18:14:35 10° N
CZ-2D R/B 3.2 18:09:24 10° SSE 18:13:17 80° ENE 18:17:18 10° NNW
Cosmos 1725 Rocket 4.4 18:08:33 10° NNW 18:14:46 70° W 18:20:58 10° S
Cosmos 1674 Rocket 3.5 18:10:36 10° S 18:14:56 69° E 18:19:21 10° NNE
Cosmos 1315 Rocket 3.0 18:12:06 10° NNW 18:15:52 70° W 18:19:38 10° S
Meteor 1-11 4.2 18:12:43 10° S 18:18:19 80° E 18:24:04 10° NNE
Cosmos 1867 3.6 18:17:00 10° SW 18:22:27 83° NW 18:27:56 10° NE
SL-16 R/B 4.3 18:18:42 10° N 18:24:00 31° WNW 18:29:18 10° WSW
ATLAS 2AS CENTAUR R/B 3.8 18:18:29 10° W 18:24:51 37° NNW 18:31:08 10° NE
Cosmos 2061 Rocket 4.0 18:18:35 10° N 18:25:02 88° E 18:31:22 10° S
Cosmos 724 4.4 18:18:59 10° SW 18:25:10 85° SE 18:31:17 10° NE
Lacrosse 5 rocket 1.1 18:22:46 10° WSW 18:26:14 69° NNW 18:28:21 23° NE
CZ-4 R/B 3.1 18:28:10 14° NE 18:28:10 14° NE 18:29:18 10° NNE
CZ-4B R/B 4.5 18:26:45 18° ENE 18:27:26 19° NE 18:31:01 10° N
Cosmos 2151 Rocket 4.1 18:26:19 10° NNW 18:30:47 63° W 18:35:12 10° S
Meteor 2-1 Rocket 4.3 18:25:04 10° NNW 18:30:53 88° W 18:36:46 10° S
CZ-4C R/B 1.7 18:27:44 10° SSW 18:31:58 69° SE 18:36:09 17° NE
Meteor 1-31 Rocket 4.0 18:32:59 21° NE 18:32:59 21° NE 18:34:50 10° NNE
Radarsat Rocket 4.1 18:29:31 10° SSE 18:35:21 78° WSW 18:41:39 10° NNW
CARTOSAT-1 3.5 18:31:10 10° SSE 18:35:22 88° WSW 18:39:37 10° NNW
IRAS Rocket 4.2 18:29:52 10° SSE 18:35:24 65° ENE 18:40:59 10° NNW
NOSS 0 Rocket 4.1 18:31:00 10° NNW 18:37:16 77° WSW 18:43:28 10° SSE
CRYOSAT 2 4.5 18:32:29 10° NNE 18:37:16 51° E 18:42:02 10° SSE
Cosmos 1356 Rocket 4.3 18:34:38 10° NNW 18:38:26 48° W 18:42:14 10° S
USA 290 3.2 18:36:54 10° SW 18:39:59 46° WNW 18:43:01 10° NNE
Cosmos 1464 Rocket 4.2 18:39:12 10° N 18:45:24 49° ENE 18:51:29 10° SSE
USA 267 3.6 18:41:48 19° ENE 18:46:36 61° NNW 18:53:01 10° W
ERS-1 Rocket 4.3 18:48:49 22° NE 18:48:49 22° NE 18:51:59 10° N
Cosmos 2297 Rocket 2.3 18:43:02 10° S 18:48:30 52° ESE 18:52:37 18° NE
Cosmos 1607 3.9 18:42:39 10° SW 18:48:48 84° NW 18:54:10 15° NE
Cosmos 1570 Rocket 4.3 18:44:37 10° S 18:49:37 45° ESE 18:52:48 21° NE
BREEZE-M DEB (TANK) 4.1 18:46:07 10° W 18:49:42 62° SSW 18:56:52 18° ESE
CSL-04 Rocket 3.9 18:47:26 22° SE 18:50:27 44° ENE 18:55:26 10° N
Cosmos 2344 4.4 18:44:42 10° SSE 18:50:44 25° ESE 18:51:12 24° ESE
Cosmos 1455 Rocket 2.8 18:46:50 10° N 18:51:09 73° ENE 18:55:25 10° SSE
DNEPR-1 R/B 4.2 18:47:47 10° NW 18:52:21 49° NE 18:54:13 34° E
Cosmos 1975 Rocket 4.4 18:48:43 10° SSE 18:50:38 23° SE 18:50:38 23° SE
Cosmos 1125 Rocket 3.8 18:48:50 10° NNW 18:54:00 67° WSW 18:59:08 10° S
YAOGAN 1 4.3 18:53:33 10° SSW 18:57:25 34° W 19:01:20 10° NNW
Cosmos 2221 Rocket 3.8 18:53:04 10° SSW 18:57:31 73° WNW 19:02:02 10° N
Okean 2 Rocket 4.4 18:55:45 10° NNW 18:59:55 42° W 19:04:01 10° SSW
Meteor 1-27 4.2 18:56:13 10° NNW 19:02:01 85° ENE 19:07:51 10° SSE
Okean 1 Rocket 4.2 18:59:01 10° NNW 19:03:14 45° W 19:07:23 10° SSW
DMSP B5D1-3 4.4 18:58:54 10° NNE 19:04:02 88° E 19:09:09 10° SSW
Cosmos 2208 Rocket 4.2 19:01:51 10° S 19:06:48 45° ESE 19:07:28 43° E
Terra 3.4 19:11:53 20° NNE 19:11:53 20° NNE 19:13:55 10° N
COSMOS 2428 4.3 19:06:05 10° NW 19:11:11 34° WSW 19:16:17 10° S
NOSS 3-3 (C) 3.7 19:07:45 10° SW 19:13:04 87° NW 19:16:44 26° NE
CZ-4B R/B 3.6 19:14:51 74° ENE 19:14:53 74° ENE 19:18:49 10° N
Cosmos 1980 4.1 19:09:29 10° NW 19:15:06 64° WSW 19:20:40 10° SSE
Meteor 2-17 Rocket 4.3 19:09:40 10° S 19:15:42 72° E 19:21:45 10° NNE
Resurs 01 Rocket 2.7 19:13:59 10° S 19:18:11 45° W 19:22:26 10° NNW
Cosmos 2237 Rocket 2.6 19:15:05 10° NW 19:20:43 63° WSW 19:25:52 12° SSE
ARIANE 6 FM1 Upper Stage 3.8 19:17:24 10° NW 19:20:14 30° N 19:20:14 30° N
COSMO-SKYMED 1 4.1 19:18:41 10° N 19:22:24 34° WNW 19:26:07 10° SW
Cosmos 44 Rocket 4.0 19:17:54 10° SSW 19:21:21 37° SSE 19:21:21 37° SSE
Aureole 3 Rocket 4.5 19:19:53 10° NNW 19:23:49 34° W 19:26:57 10° SSW
Cosmos 773 Rocket 3.9 19:18:52 10° S 19:24:05 66° ESE 19:25:06 53° ENE
Cosmos 2228 2.8 19:21:12 10° N 19:25:24 88° W 19:25:36 81° S
Orbus 7S? 4.0 19:19:42 10° WNW 19:28:04 76° SW 19:28:58 57° SSE
Cosmos 2150 Rocket 3.9 19:27:26 10° NNW 19:32:38 84° WSW 19:33:58 51° SSE
Cosmos 2298 Rocket 3.9 19:28:03 10° NNW 19:33:22 87° WSW 19:34:42 52° SSE
Cosmos 836 Rocket 4.5 19:32:18 10° SSW 19:37:35 84° WNW 19:39:46 37° NNE
CBERS 1 LM4 rocket 4.5 19:40:47 73° E 19:40:56 73° ENE 19:46:22 10° NNW
NOSS 3-3 (A) 4.3 19:36:50 10° WSW 19:42:08 58° NW 19:45:02 31° NNE
SL-16 R/B 2.1 19:38:51 10° NNW 19:44:20 67° NE 19:44:20 67° NE
Cosmos 2227 Rocket 2.8 19:41:50 10° SSW 19:45:30 41° S 19:45:30 41° S
SPOT 5 3.1 19:47:23 56° SSW 19:48:17 70° WSW 19:53:20 10° NNW
MOS 1 4.2 19:49:13 70° NE 19:49:13 70° NE 19:54:38 10° NNW
Okean O Rocket 4.2 20:02:07 12° N 20:02:07 12° N 20:02:26 10° N
NOSS 3-4 (A) 4.2 19:52:51 10° NW 19:59:27 59° SW 20:02:39 35° S
NOSS 3-4 (C) 4.2 19:53:06 10° NW 19:59:44 60° SW 20:02:53 36° S
CZ-4 R/B 3.6 20:03:09 18° NNW 20:03:09 18° NNW 20:04:13 10° NNW
Cosmos 1816 Rocket 4.5 19:54:30 10° SSW 20:00:39 78° W 20:06:54 10° N
Cosmos 2034 Rocket 4.0 19:54:56 10° NNW 20:01:06 78° W 20:02:53 49° S
Lacrosse 5 rocket 3.5 20:00:18 10° WNW 20:01:48 20° NW 20:01:48 20° NW
CZ-4B R/B 3.6 20:08:36 55° NNW 20:08:36 55° NNW 20:12:41 10° NNW
BREEZE-M DEB (TANK) 3.9 19:53:55 10° WSW 20:10:22 63° S 20:10:45 62° SSE
ADEOS 4.2 20:12:43 50° NNW 20:12:43 50° NNW 20:16:35 10° NNW
Cosmos 1634 Rocket 4.3 20:05:03 10° N 20:10:07 57° NNE 20:10:07 57° NNE
ATLAS 2AS CENTAUR R/B 4.0 20:11:50 10° NW 20:17:36 28° N 20:18:40 27° NNE
CZ-4C R/B 3.3 20:16:19 10° W 20:20:41 34° NNW 20:21:07 34° NNW
ERS-1 Rocket 4.4 20:28:40 33° NNW 20:28:40 33° NNW 20:31:27 10° NNW
USA 267 3.6 20:29:08 53° N 20:29:09 53° N 20:35:28 10° WNW
Cosmos 2297 Rocket 3.6 20:27:34 10° WSW 20:32:45 36° NW 20:34:29 29° NNW
Terra 4.2 20:50:29 19° NNW 20:50:29 19° NNW 20:51:52 10° NNW
Cosmos 2344 4.3 20:56:34 10° SW 21:01:17 41° SW 21:01:17 41° SW
SL-16 R/B 4.4 21:23:40 10° NW 21:26:13 20° WNW 21:26:13 20° WNW
